{"data":{"norad_id":58327,"epoch":"2026-09-19T11:49:17.950368Z","epoch_age_seconds":101418,"freshness":"FRESH","line1":"1 58327U 23174BZ  26262.49256887  .00020902  00000+0  34061-3 0  9998","line2":"2 58327  97.3774 352.5413 0005241 170.9520 189.1828 15.52640932160172","mean_motion":15.52640932,"eccentricity":0.0005241,"inclination_deg":97.3774,"raan_deg":352.5413,"arg_perigee_deg":170.952,"mean_anomaly_deg":189.1828,"bstar":0.00034061,"rev_number":16017,"period_min":92.745204014755,"perigee_km":405.46168176961,"apogee_km":412.57597851077,"semimajor_km":6787.1558301402,"source":"CELESTRAK","updated_at":"2026-09-20T09:00:34.710958Z"}}